Location: Newark
(1.5000°S, 132.5000°E)
Time: 03:40:45
(UTC+00:00)

N. Korean satellite - Visible Passes

Search period start: 17 October 2019 00:00
Search period end: 27 October 2019 00:00
Orbit: 455 x 508 km, 97.2° (Epoch: 16 October)

Date Brightness Start Highest point End Pass type
(mag) Time Alt. Az. Time Alt. Az. Time Alt. Az.
17 Oct 7.9 20:26:25 10° NNE 20:29:57 47° E 20:33:32 10° S visible
18 Oct 9.9 20:02:09 10° ENE 20:04:46 18° ESE 20:07:23 10° SSE visible
19 Oct 9.9 09:22:11 10° SSW 09:24:39 18° WSW 09:27:05 10° NW visible
21 Oct 8.6 20:18:48 10° NE 20:22:12 35° ESE 20:25:37 10° SSE visible
22 Oct 10.2 19:54:57 10° ENE 19:56:59 14° ESE 19:59:02 10° SE visible
25 Oct 9.2 20:11:15 10° NE 20:14:24 26° ESE 20:17:33 10° SSE visible
26 Oct 10.3 09:32:40 10° SW 09:34:11 13° WSW 09:35:43 10° WNW visible
26 Oct 10.6 19:48:15 10° E 19:49:11 11° ESE 19:50:05 10° ESE visible
